Weather in Hokitika

New Zealand     42°42′58″S   170°57′59″E
temp.,
°C
wind,
m/s
gust,
m/s
humid.,
%
clouds,
%
prec.,
mm/h
press.,
hPa
HPBL,
m
6 may, thu
thu600:00+13se11900 0.3 102734
03:00+11se11910 0.0 102841
06:00+10se11923 0.0 102937
09:00+11e11870 0.0 103089
12:00+14wnw11723 0.0 1030518
15:00+14w22670 0.0 1030422
18:00+12ssw11790 0.0 103077
21:00+10se11850 0.0 103139
7 may, fri
fri700:00+10ese12830 0.0 103348
03:00+10ese22800 0.0 103252
06:00+9ese22810 0.0 103349
09:00+12ne1173100 0.0 103486
12:00+17nne125699 0.0 1033514
15:00+16nw2262100 0.0 1032276
18:00+12se1178100 0.0 103229
21:00+11ese2277100 0.0 103246
8 may, sat
sat800:00+11ese2273100 0.0 103356
03:00+12ese2368100 0.0 103173
06:00+13ese3373100 0.2 103067
09:00+14ese2376100 0.0 103079
12:00+13se2488100 0.8 1029105
15:00+14e2588100 0.4 1026295
18:00+14ne4893100 2.3 1025379
21:00+14ne51392100 4.4 1023820
9 may, sun
sun900:00+15nne81697100 12.1 10211094
03:00+16n71598100 9.9 1020934
06:00+16nnw71498100 15.1 1018851
09:00+16nw61297100 8.1 1018797
12:00+16nw81396100 15.7 1018775
15:00+16w249499 3.8 1019269
18:00+15wnw129748 4.3 102032
21:00+15e1297100 0.5 102242
10 may, mon
mon1000:00+15ene129558 0.9 102338
03:00+14ese119542 0.6 102436
06:00+14se119371 0.7 102338
09:00+14ese1189100 0.0 102549
12:00+18n017752 0.0 1024417
15:00+17nnw227649 0.0 1022363
18:00+14ene129251 0.0 102230
21:00+13ese229494 0.0 102347